TimeEDT,TemperatureF,Dew PointF,Humidity,Sea Level PressureIn,VisibilityMPH,Wind Direction,Wind SpeedMPH,Gust SpeedMPH,PrecipitationIn,Events,Conditions,WindDirDegrees,DateUTC
12:54 AM,52.0,36.0,54,30.32,10.0,South,4.6,-,N/A,,Scattered Clouds,190,2013-04-28 04:54:00
1:54 AM,52.0,39.0,61,30.30,10.0,South,5.8,-,N/A,,Scattered Clouds,190,2013-04-28 05:54:00
2:54 AM,51.1,39.0,63,30.29,10.0,Calm,Calm,-,N/A,,Mostly Cloudy,0,2013-04-28 06:54:00
3:54 AM,50.0,41.0,71,30.30,10.0,SSW,3.5,-,N/A,,Mostly Cloudy,200,2013-04-28 07:54:00
4:54 AM,48.9,41.0,74,30.28,10.0,South,4.6,-,N/A,,Mostly Cloudy,190,2013-04-28 08:54:00
5:54 AM,48.9,39.0,69,30.28,10.0,Calm,Calm,-,N/A,,Scattered Clouds,0,2013-04-28 09:54:00
6:54 AM,48.0,39.9,74,30.30,10.0,Calm,Calm,-,N/A,,Scattered Clouds,0,2013-04-28 10:54:00
7:54 AM,53.1,39.9,61,30.32,10.0,Calm,Calm,-,N/A,,Partly Cloudy,0,2013-04-28 11:54:00
8:54 AM,57.0,39.9,53,30.32,10.0,Calm,Calm,-,N/A,,Scattered Clouds,0,2013-04-28 12:54:00
9:54 AM,62.1,42.1,48,30.30,10.0,Calm,Calm,-,N/A,,Scattered Clouds,0,2013-04-28 13:54:00
10:54 AM,64.9,39.9,40,30.31,10.0,Variable,3.5,-,N/A,,Mostly Cloudy,0,2013-04-28 14:54:00
11:54 AM,66.9,37.0,33,30.30,10.0,South,8.1,-,N/A,,Mostly Cloudy,180,2013-04-28 15:54:00
12:54 PM,70.0,33.1,26,30.29,10.0,SSW,15.0,-,N/A,,Mostly Cloudy,210,2013-04-28 16:54:00
1:54 PM,70.0,32.0,25,30.27,10.0,South,12.7,-,N/A,,Mostly Cloudy,180,2013-04-28 17:54:00
2:54 PM,69.1,30.0,23,30.26,10.0,South,12.7,-,N/A,,Overcast,190,2013-04-28 18:54:00
3:54 PM,69.1,32.0,25,30.24,10.0,South,12.7,-,N/A,,Overcast,190,2013-04-28 19:54:00
4:54 PM,66.9,30.9,26,30.23,10.0,South,10.4,-,N/A,,Overcast,170,2013-04-28 20:54:00
5:54 PM,64.9,28.0,25,30.22,10.0,SSE,12.7,20.7,N/A,,Overcast,160,2013-04-28 21:54:00
6:54 PM,63.0,28.9,28,30.21,10.0,South,12.7,-,N/A,,Overcast,170,2013-04-28 22:54:00
7:54 PM,62.1,26.1,25,30.21,10.0,South,9.2,-,N/A,,Overcast,170,2013-04-28 23:54:00
8:54 PM,60.1,28.9,31,30.21,10.0,SSE,5.8,-,N/A,,Overcast,150,2013-04-29 00:54:00
9:54 PM,59.0,33.1,38,30.23,10.0,SSE,6.9,-,N/A,,Overcast,150,2013-04-29 01:54:00
10:54 PM,57.0,39.0,51,30.24,10.0,SSE,4.6,-,0.00,,Overcast,150,2013-04-29 02:54:00
11:54 PM,55.9,39.9,55,30.23,10.0,SE,4.6,-,0.00,,Overcast,140,2013-04-29 03:54:00